Vertical_Velocity
6 -2 -14 -5 -8 5 4 17 -8 10 -1 3 3 -2 -2 -4 -5 -4 1 -5 -6 -1 1 -0 -1 -0 -0 -3 -3 -2 -1 0 -0 0 0 -1 -0 -1 -0 0 0 -0 1 1
4 -20 -12 4 1 3 9 9 5 15 10 9 -2 -2 -3 -9 -7 -6 -3 -1 -4 -4 0 3 2 -1 -2 1 -1 -0 0 -1 -1 -3 -1 1 1 0 1 1 4 1 1 -0
-1 -30 8 1 2 4 3 -1 4 -3 22 18 12 11 4 -6 -0 1 0 4 -2 -1 -5 -1 -0 1 -1 -2 2 -1 -2 -2 -3 -2 -1 -1 -0 -0 2 -0 -0 -2 -0 1
-2 2 -2 2 -7 13 -4 14 15 25 6 -21 9 -8 -6 -0 -3 1 3 1 2 -2 -3 -6 -2 -1 2 0 0 -2 -6 -2 0 1 -4 -1 0 -3 -4 -3 -0 1 -0 -3
-23 -6 -5 3 -29 24 -36 15 9 -1 8 12 5 4 -8 4 -5 -10 -10 -5 6 -6 1 -5 -5 -4 3 1 -3 -2 -6 -4 -3 -4 -1 -1 -4 -1 -2 -4 -4 -3 1 -1
-8 -9 15 -23 -7 4 -4 13 32 -0 12 8 -18 3 -7 -22 -41 6 5 4 3 -10 0 2 2 -2 4 4 2 2 -0 -2 -2 -0 -0 -7 -5 -4 -0 -2 -1 -3 -4 -1
5 -7 -6 5 1 6 18 19 0 3 5 -11 3 22 -38 -3 -1 0 -13 -3 -7 -1 -2 7 -5 -5 0 -4 -4 -4 -5 -4 -2 0 -1 -4 -1 1 -5 -6 -5 -2 1 2
3 -1 8 1 -3 -11 8 11 -5 -5 -2 -6 22 -4 -58 20 9 14 -7 -2 1 -5 -3 -0 1 -1 0 3 -4 1 -2 -4 -1 -1 -2 -3 3 2 -1 2 -1 2 -2 -3
-1 -18 8 4 -2 13 -14 3 -3 6 5 1 -3 -8 -18 5 -2 2 -5 -3 -10 -6 -0 -2 5 -1 1 3 -1 -4 -1 -3 -1 -0 1 -1 1 1 -2 -2 -5 -5 -4 -3
-13 -3 -1 -11 19 4 15 -7 7 5 -2 0 -3 -2 -14 -5 -9 -6 6 -7 -4 -4 -4 3 3 -4 -3 3 8 5 0 4 5 2 4 2 2 -1 1 1 -3 -4 -3 0
-4 11 -32 23 4 -1 7 9 13 12 6 -8 -2 -14 -9 2 -15 -15 -2 -0 3 -8 -8 -4 -5 1 -4 0 1 6 3 4 2 3 7 2 8 6 4 1 0 -0 -2 -2
-22 2 -16 -21 -10 14 4 -10 1 4 -4 1 3 -22 -4 -16 -11 -0 -6 -1 4 5 -1 2 -3 -6 -8 1 4 1 6 5 9 6 4 1 2 3 2 1 -1 1 -4 -4
8 -19 6 -3 7 0 22 -3 2 4 1 -5 -4 -8 -4 0 12 -7 -8 -9 -1 -3 -17 -11 -2 -4 -7 -1 2 5 3 5 7 5 4 3 8 5 4 2 -1 -0 -5 -4
54 4 -11 -23 -23 3 18 -2 -5 -1 1 -5 -9 -1 -7 -9 -4 1 13 4 -7 -7 -7 -2 -0 -8 -7 3 1 2 3 6 7 -1 -1 0 2 5 2 4 -0 0 -2 -2
15 -14 7 -11 -17 2 -2 -14 6 3 -3 -2 -18 2 -10 -6 -9 -13 -6 -3 -14 -8 0 -12 -8 -4 4 -10 -4 5 6 4 8 -3 9 6 6 3 1 2 -2 1 -1 -2
9 -24 -1 -16 9 29 -3 25 10 15 24 21 6 -3 7 4 11 7 -5 4 11 5 -1 4 -4 2 -4 1 -2 -10 -2 8 5 -3 3 11 4 1 7 2 -2 2 -2 3
2 5 9 -13 16 4 6 -10 7 -11 6 6 2 -38 13 4 4 7 1 7 -2 3 -5 -8 -8 -6 -5 -3 4 1 -2 9 9 9 10 9 7 6 3 3 2 0 -0 -4
4 9 11 3 5 -0 9 -10 10 1 -3 -18 -14 -7 13 12 16 22 13 2 -6 -3 2 2 -3 -6 -6 -5 -5 -5 1 -1 24 7 14 3 8 4 5 7 3 2 -5 -1
11 15 1 -2 -2 3 14 12 20 -1 -4 0 -6 -12 10 1 6 7 4 6 8 -2 -1 -11 -7 0 5 7 0 -2 -2 7 1 5 -2 6 8 -2 10 1 0 -7 -6 1
-2 8 19 4 -2 -3 8 2 -6 7 -4 -12 8 2 3 12 7 5 8 6 -20 -2 -1 -10 -12 -1 -3 -4 -0 7 -4 2 -2 6 8 9 3 6 -3 -1 -3 0 -1 10
2 -6 3 4 -1 1 1 7 -1 -2 1 -6 6 14 22 8 10 -17 9 2 6 6 0 -7 -14 -4 -0 -10 -5 -5 -1 -5 14 11 7 9 18 1 7 2 -0 -1 1 5
-6 -4 2 0 3 -1 3 6 4 6 5 0 4 14 -14 -1 5 -5 2 5 2 4 -6 -10 -13 1 -2 -0 -7 9 12 4 10 5 -8 -8 1 -12 37 14 -6 7 -3 4
-7 -22 -7 -7 1 5 3 12 12 8 -1 11 -10 4 -0 9 -0 3 10 -7 -6 32 8 1 6 -7 -5 -6 -7 4 2 7 -15 -13 6 -18 -33 -3 -88 180 26 9 -3 2
-24 -5 -3 -20 5 -1 10 -13 3 8 16 5 0 20 11 -9 -2 -3 -7 -1 19 23 -5 3 2 3 3 -0 8 -3 -3 -4 17 20 11 58 4 -15 -18 -28 -21 -9 1 9
-10 21 -9 -8 4 17 -21 9 -5 -8 -8 4 -26 -5 -9 10 -7 -12 -8 13 5 -5 -2 8 -2 3 14 10 12 -2 12 5 10 14 12 -4 0 -18 -36 -4 -5 -7 4 6
-0 -18 9 9 15 -10 7 -7 13 -7 -22 -20 -10 -1 -11 -7 -13 11 -4 -29 -33 2 -17 -9 -0 16 8 8 9 6 8 12 -10 -9 6 10 -42 5 8 -8 5 12 8 -1
Height
3153 3155 3155 3161 3165 3167 3170 3172 3172 3174 3175 3178 3180 3183 3185 3188 3190 3189 3189 3189 3192 3194 3196 3197 3199 3200 3201 3203 3205 3206 3206 3207 3208 3209 3209 3208 3207 3205 3203 3202 3201 3200 3199 3199
3149 3148 3154 3159 3162 3163 3166 3170 3170 3173 3174 3176 3178 3181 3183 3184 3186 3187 3188 3189 3191 3193 3194 3196 3197 3199 3200 3201 3203 3204 3205 3206 3207 3207 3208 3207 3205 3203 3201 3199 3197 3196 3194 3193
3140 3146 3154 3156 3157 3160 3161 3164 3167 3168 3172 3176 3178 3182 3180 3183 3184 3186 3187 3189 3191 3191 3193 3194 3196 3198 3199 3199 3202 3204 3204 3205 3206 3207 3207 3206 3205 3202 3200 3197 3195 3193 3192 3191
3140 3145 3149 3152 3153 3158 3158 3161 3163 3164 3166 3169 3173 3174 3175 3176 3178 3181 3183 3185 3187 3188 3192 3193 3194 3196 3198 3199 3201 3202 3203 3204 3205 3205 3205 3205 3203 3200 3198 3196 3193 3192 3191 3190
3134 3139 3143 3146 3148 3154 3153 3156 3159 3158 3159 3162 3167 3169 3166 3174 3175 3175 3177 3178 3181 3184 3187 3190 3192 3194 3196 3197 3199 3199 3200 3203 3203 3203 3204 3203 3199 3198 3196 3195 3192 3190 3189 3187
3133 3137 3140 3143 3145 3149 3150 3153 3153 3154 3156 3159 3159 3163 3161 3164 3163 3167 3172 3176 3178 3181 3182 3185 3189 3191 3194 3194 3195 3196 3198 3200 3201 3201 3201 3198 3197 3197 3197 3195 3191 3189 3186 3184
3130 3131 3135 3140 3142 3143 3145 3148 3148 3150 3156 3155 3155 3159 3156 3156 3160 3163 3167 3171 3174 3176 3178 3180 3184 3186 3188 3191 3193 3194 3196 3197 3198 3198 3197 3195 3195 3197 3196 3194 3190 3187 3185 3182
3123 3125 3126 3131 3135 3138 3139 3143 3144 3150 3148 3144 3148 3147 3149 3152 3154 3158 3164 3168 3171 3172 3173 3175 3178 3181 3184 3188 3190 3191 3192 3193 3193 3194 3193 3194 3195 3194 3193 3189 3187 3184 3181 3178
3118 3118 3123 3126 3131 3135 3136 3133 3141 3141 3142 3143 3142 3144 3143 3144 3148 3152 3156 3160 3163 3166 3169 3172 3174 3177 3180 3183 3184 3186 3187 3188 3189 3189 3190 3191 3192 3191 3190 3188 3186 3183 3179 3175
3114 3117 3116 3121 3127 3127 3127 3133 3134 3134 3140 3144 3140 3141 3138 3139 3142 3147 3152 3155 3157 3162 3165 3169 3171 3174 3176 3177 3179 3181 3181 3182 3184 3185 3186 3187 3188 3187 3186 3184 3181 3178 3176 3173
3109 3112 3110 3114 3112 3117 3120 3121 3126 3131 3131 3134 3140 3136 3135 3134 3138 3141 3146 3151 3152 3155 3159 3164 3168 3171 3172 3173 3174 3176 3177 3177 3178 3180 3181 3183 3183 3182 3181 3179 3177 3175 3173 3170
3100 3105 3104 3103 3108 3112 3113 3117 3120 3122 3126 3128 3130 3131 3131 3133 3136 3140 3145 3148 3151 3153 3157 3161 3165 3166 3167 3166 3167 3170 3171 3172 3174 3175 3176 3178 3178 3178 3178 3177 3174 3173 3170 3167
3092 3094 3098 3100 3104 3102 3103 3109 3114 3117 3120 3123 3127 3128 3128 3130 3133 3137 3142 3145 3149 3151 3152 3156 3159 3160 3159 3159 3161 3163 3165 3167 3169 3170 3171 3173 3173 3172 3173 3173 3171 3168 3165 3161
3084 3086 3088 3091 3093 3098 3099 3103 3108 3112 3114 3119 3120 3123 3125 3128 3132 3135 3138 3141 3145 3147 3148 3149 3152 3153 3153 3153 3156 3158 3159 3161 3163 3165 3166 3166 3167 3166 3167 3167 3166 3162 3159 3156
3074 3078 3084 3089 3090 3094 3095 3097 3101 3104 3109 3113 3117 3118 3120 3123 3125 3128 3133 3136 3139 3142 3142 3144 3146 3147 3148 3150 3149 3151 3153 3156 3156 3159 3159 3161 3161 3160 3160 3161 3160 3157 3154 3152
3064 3071 3077 3083 3086 3088 3089 3091 3094 3100 3104 3107 3111 3113 3117 3120 3124 3126 3128 3130 3132 3137 3139 3140 3142 3142 3142 3143 3144 3146 3147 3150 3149 3152 3153 3155 3155 3155 3156 3156 3154 3152 3150 3148
3058 3063 3069 3075 3081 3084 3086 3087 3091 3097 3099 3105 3106 3109 3113 3114 3117 3119 3123 3126 3128 3130 3134 3135 3135 3136 3137 3137 3138 3138 3140 3143 3143 3144 3145 3146 3148 3148 3150 3150 3149 3147 3145 3143
3051 3058 3065 3069 3075 3079 3082 3086 3089 3092 3095 3099 3101 3100 3105 3107 3112 3116 3118 3120 3123 3126 3130 3131 3131 3130 3129 3128 3128 3130 3132 3135 3137 3138 3140 3140 3142 3140 3143 3143 3142 3141 3140 3137
3049 3052 3059 3061 3067 3074 3078 3081 3086 3090 3092 3094 3093 3094 3097 3102 3107 3111 3115 3118 3120 3123 3126 3127 3126 3125 3124 3121 3120 3122 3123 3127 3129 3131 3134 3136 3135 3135 3137 3137 3135 3134 3131 3129
3048 3050 3054 3057 3062 3068 3072 3076 3080 3084 3090 3094 3091 3092 3095 3098 3102 3107 3111 3114 3116 3120 3120 3121 3123 3122 3120 3118 3117 3115 3116 3118 3119 3123 3127 3127 3128 3129 3130 3128 3127 3124 3123 3120
3048 3050 3054 3056 3061 3066 3069 3073 3077 3082 3093 3091 3095 3097 3100 3101 3105 3110 3111 3112 3113 3115 3117 3117 3115 3114 3113 3112 3111 3110 3110 3111 3115 3118 3119 3121 3123 3123 3121 3119 3117 3116 3114 3113
3049 3057 3061 3060 3060 3066 3067 3074 3076 3081 3084 3089 3094 3096 3100 3101 3103 3102 3105 3109 3112 3112 3108 3108 3108 3107 3105 3104 3105 3105 3106 3107 3108 3109 3110 3111 3113 3113 3108 3111 3106 3108 3107 3105
3054 3062 3065 3069 3070 3070 3070 3073 3075 3077 3082 3085 3090 3092 3099 3099 3106 3103 3102 3105 3108 3109 3106 3104 3101 3099 3099 3098 3097 3099 3101 3103 3103 3104 3105 3101 3102 3103 3091 3071 3102 3101 3100 3098
3050 3056 3062 3069 3075 3074 3074 3074 3081 3083 3083 3083 3089 3092 3090 3093 3095 3096 3099 3102 3103 3101 3100 3099 3095 3092 3091 3091 3092 3092 3095 3096 3097 3099 3098 3099 3096 3096 3098 3094 3092 3094 3095 3091
3050 3057 3053 3071 3068 3072 3075 3075 3076 3080 3079 3085 3089 3093 3092 3091 3089 3086 3091 3096 3095 3093 3092 3089 3086 3087 3087 3088 3086 3087 3088 3089 3090 3092 3092 3090 3090 3089 3090 3088 3088 3089 3087 3084
3049 3057 3060 3060 3059 3065 3071 3072 3074 3073 3077 3083 3087 3088 3087 3082 3087 3083 3083 3084 3091 3086 3084 3081 3080 3082 3081 3083 3082 3081 3081 3079 3080 3079 3080 3081 3085 3085 3083 3085 3085 3083 3080 3077